Preview of NWS' New Version of Forecast
This preview is not operational and should not be used for support decisions.

Regional Weather Roundup (RWR)

Issued by National Weather Service (NWS)

                            
715 
ASUS43 KDMX 212306
RWRIA 

WEATHER ROUNDUP FOR IOWA
NATIONAL WEATHER SERVICE DES MOINES IA
600 PM CDT THU JUN 21 2018

NOTE: "FAIR" INDICATES FEW OR NO CLOUDS BELOW 12,000 FEET WITH NO
SIGNIFICANT WEATHER AND/OR OBSTRUCTIONS TO VISIBILITY.

* - THESE STATIONS ARE NOT NWS STATIONS...THUS NOT UNDER NWS
QUALITY CONTROL.  THEY ALSO DO NOT REPORT WEATHER SUCH 
AS PRECIPITATION OR FOG.  

IAZ001>003-012>014-020>022-031>034-043>046-220000-
   NORTHWEST IOWA
  
CITY           SKY/WX    TMP DP  RH WIND       PRES   REMARKS
CARROLL *      CLOUDY    70  64  83 NE20      29.80R                  
CHEROKEE *     CLOUDY    63  63  98 N12       29.87R                  
DENISON *      CLOUDY    70  64  83 N17G24    29.83R                  
LE MARS *      CLOUDY    64  61  88 N12       29.89R                  
ORANGE CITY *  CLOUDY    66  63  88 NE9G20    29.89S                  
SHELDON *      CLOUDY    66  63  88 NE14G21   29.89R                  
SIOUX CITY     CLOUDY    66  61  84 N14       29.87R                  
SPENCER        CLOUDY    65  58  78 NE18G30   29.88R                  
STORM LAKE *   CLOUDY    63  59  88 NE14G23   29.86R                  
$$
 
IAZ055>058-069>071-079>083-090>094-220000-
   SOUTHWEST IOWA
  
CITY           SKY/WX    TMP DP  RH WIND       PRES   REMARKS
ATLANTIC *     PTSUNNY   70  66  88 NE14G23   29.77R                  
AUDUBON *      RAIN      68  64  88 NE12G17   29.80R                  
CLARINDA *     PTSUNNY   75  64  69 VRB7      29.77S                  
COUNCIL BLFS * PTSUNNY   75 -35   1 N14       29.78S                  
CRESTON *      CLOUDY    72  63  73 N8        29.76S                  
HARLAN  *        N/A    N/A N/A N/A MISG        N/A                   
LAMONI         CLOUDY    73  62  68 N9        29.73S                  
RED OAK *      MOSUNNY   75  64  69 N13       29.76S                  
SHENANDOAH *   CLOUDY    73  63  68 N9        29.76F                  
$$
 
IAZ047>049-059>061-072>074-084-220000-
   CENTRAL IOWA
  
CITY           SKY/WX    TMP DP  RH WIND       PRES   REMARKS
AMES           CLOUDY    67  64  90 NE16G23   29.77R                  
BOONE *        CLOUDY    66  64  94 NE15      29.78R                  
CHARITON *     PTSUNNY   72  64  78 N9        29.71F                  
DES MOINES     PTSUNNY   71  67  87 N12       29.72S                  
GRINNELL*      CLOUDY    69  65  84 NE17G23   29.75S                  
KNOXVILLE *    CLOUDY    72  64  78 N9        29.71S                  
MARSHALLTOWN   CLOUDY    67  65  93 NE14G25   29.77R                  
NEWTON *       CLOUDY    70  66  88 NE17      29.74R                  
PELLA *        PTSUNNY   67  64  93 CALM      29.74R                  
PERRY *        CLOUDY    70  68  93 N12       29.77R                  
$$
 
IAZ004>006-015-016-023>025-035-036-220000-
   NORTH CENTRAL IOWA
  
CITY           SKY/WX    TMP DP  RH WIND       PRES   REMARKS
CLARION *      CLOUDY    64  57  77 E17G26    29.83S                  
ESTHERVILLE    CLOUDY    65  59  81 NE18      29.88R                  
FORT DODGE *   CLOUDY    64  60  87 NE15      29.83R                  
MASON CITY     CLOUDY    64  58  80 NE13G23   29.86S                  
FOREST CITY *  CLOUDY    64  59  82 NE10G18   29.86S                  
WEBSTER CITY * CLOUDY    64  61  88 NE15      29.79S                  
IOWA FALLS *   CLOUDY    64  62  93 NE13      29.81R FOG              
$$

IAZ007>011-017>019-026>030-037>042-050>054-066-220000-
   NORTHEAST IOWA
  
CITY           SKY/WX    TMP DP  RH WIND       PRES   REMARKS
CEDAR RAPIDS   CLOUDY    66  65  96 NE16      29.74S                  
CHARLES CITY * CLOUDY    64  57  77 E15       29.85R                  
CLINTON *      CLOUDY    66  65  96 NE15      29.75S                  
DECORAH *      PTSUNNY   63  59  88 E16G23    29.84S                  
DUBUQUE        RAIN      60  59  96 NE15      29.81R FOG              
MONTICELLO *   PTSUNNY   63  63 100 NE12G22   29.77R FOG              
OELWEIN *      CLOUDY    63  55  77 NE21G28   29.82R                  
WATERLOO       CLOUDY    61  56  83 NE20G28   29.80R                  
$$
 
IAZ064-065-067-068-078-220000-
   EAST CENTRAL IOWA
  
CITY           SKY/WX    TMP DP  RH WIND       PRES   REMARKS
DAVENPORT      LGT RAIN  67  65  93 NE18G24   29.75R                  
IOWA CITY      CLOUDY    68  66  93 NE10      29.74S                  
MT. PLEASANT * PTSUNNY   73  63  68 N8        29.70S                  
MUSCATINE *    FAIR      75  64  69 NE10G16   29.70S                  
QUAD CITIES    CLOUDY    71  68  90 N5        29.71S                  
$$
 
IAZ062-063-075>077-085>089-095>099-220000-
   SOUTHEAST IOWA
  
CITY           SKY/WX    TMP DP  RH WIND       PRES   REMARKS
BURLINGTON     MOSUNNY   76  32  20 NW5       29.69S                  
FAIRFIELD *    PTSUNNY   72  64  78 NE10      29.70S                  
FORT MADISON * MOSUNNY   75  64  69 CALM      29.70S                  
KEOKUK *       MOSUNNY   73  64  73 CALM      29.69F                  
OSKALOOSA *    LGT RAIN  68  66  94 NE5       29.72S                  
CENTERVILLE *    N/A     68  66  94 CALM      29.73F                  
OTTUMWA        RAIN      69  67  93 N12       29.71S FOG              
WASHINGTON *   PTSUNNY   72  72 100 NE13      29.72S                  
$$

ABBREVIATIONS USED IN REMARKS
   TC - TEMPERATURES IN CELSIUS
  WCI - WIND CHILL INDEX
   HX - HEAT INDEX
  VSB - VISIBILITY  
$$